Flag Weather past 2 weeks in Sydney, New South Wales, Australia

Now
88 °F

Scattered clouds.


Feels Like: 90 °F
Forecast: 70 / 83 °F
Wind: 17 mph from Southeast

Location: Sydney Airport

Current Time: Nov 23, 2014 at 4:12:23 PM

Latest Report: Nov 23, 2014 at 3:30 PM


Visibility: N/A

Pressure: 29.74 "Hg

Humidity: 49%

Dew point: 66 °F

Location of SydneyLocation

Historic Weather in Sydney — Graph

°F

Sydney temperature yesterday

Maximum temperature yesterday: 77 °F (at 1:00 PM)
Minimum temperature yesterday: 68 °F (at 1:00 AM)
Average temperature yesterday: 71 °F

Past Weeks' High & Low Weather Summary

 TemperatureHumidityPressure
High99 °F (Nov 14, 1:30 PM)89% (Nov 21, 6:00 PM)30.18 "Hg (Nov 21, 6:00 PM)
Low61 °F (Nov 11, 5:00 AM)22% (Nov 14, 12:30 PM)29.53 "Hg (Nov 16, 1:30 PM)
Average71 °F67%29.94 "Hg
* Reported Nov 8 3:00 PM — Nov 23 3:00 PM, Sydney, Weather by CustomWeather, © 2014

Note: Actual official high and low records may vary slightly from our data, if they occured in-between our weather recording intervals... More about our weather records

Advertising

Sydney weather history for previous 24 hours

 ConditionsComfort  
Time TempWeatherWind HumidityBarometerVisibility
3:00 PM
Nov 23
90 °FScattered clouds.16 mph41%29.74 "HgN/A
2:30 PM90 °FSunny.14 mph46%29.74 "Hg10 mi
2:00 PM90 °FSunny.15 mph43%29.77 "Hg10 mi
1:30 PM88 °FSunny.15 mph49%29.77 "Hg10 mi
1:00 PM86 °FSunny.14 mph52%29.80 "Hg10 mi
12:30 PM84 °FSunny.14 mph55%29.80 "Hg10 mi
12:00 PM82 °FSunny.13 mph58%29.83 "Hg10 mi
11:30 AM84 °FSunny.14 mph55%29.83 "Hg10 mi
11:00 AM82 °FSunny.13 mph58%29.83 "Hg10 mi
10:30 AM82 °FSunny.10 mph58%29.86 "Hg10 mi
10:00 AM82 °FSunny.5 mph55%29.83 "Hg10 mi
9:30 AM77 °FSunny.5 mph69%29.86 "Hg10 mi
9:00 AM79 °FSunny.5 mph61%29.86 "Hg10 mi
8:30 AM77 °FSunny.6 mph65%29.86 "Hg10 mi
8:00 AM73 °FSunny.6 mph74%29.86 "Hg10 mi
7:30 AM72 °FSunny.9 mph78%29.86 "Hg10 mi
7:00 AM70 °FPartly sunny.7 mph83%29.83 "HgN/A
6:30 AM70 °FPartly sunny.7 mph83%29.83 "HgN/A
6:00 AM70 °FPartly sunny.7 mph83%29.86 "HgN/A
5:30 AM70 °FPassing clouds.8 mph83%29.83 "Hg6 mi
4:30 AM70 °FClear.8 mph83%29.83 "Hg10 mi
4:00 AM70 °FClear.7 mph83%29.83 "Hg10 mi
3:30 AM70 °FClear.6 mph83%29.83 "Hg10 mi
3:00 AM70 °FClear.6 mph83%29.83 "Hg10 mi
2:30 AM70 °FClear.7 mph83%29.83 "Hg10 mi
2:00 AM70 °FClear.7 mph83%29.86 "Hg10 mi
1:30 AM72 °FClear.8 mph78%29.86 "Hg10 mi
1:00 AM72 °FClear.6 mph78%29.89 "Hg10 mi
12:30 AM72 °FClear.8 mph78%29.89 "Hg10 mi
12:00 AM72 °FPassing clouds.6 mph83%29.92 "HgN/A
11:30 PM
Nov 22
72 °FPassing clouds.8 mph78%29.89 "HgN/A
11:00 PM72 °FPassing clouds.8 mph78%29.92 "HgN/A
10:30 PM70 °FPassing clouds.8 mph88%29.92 "HgN/A
10:00 PM72 °FPassing clouds.9 mph83%29.92 "HgN/A
9:30 PM72 °FPassing clouds.10 mph83%29.92 "HgN/A
9:00 PM72 °FPassing clouds.9 mph78%29.89 "HgN/A
8:30 PM70 °FPartly cloudy.8 mph83%29.89 "HgN/A
8:00 PM72 °FPartly cloudy.9 mph78%29.89 "HgN/A
7:30 PM72 °FBroken clouds.13 mph78%29.86 "HgN/A
7:00 PM72 °FBroken clouds.16 mph78%29.86 "HgN/A
6:30 PM72 °FBroken clouds.14 mph78%29.86 "HgN/A
6:00 PM72 °FBroken clouds.15 mph78%29.86 "HgN/A
5:30 PM73 °FPartly sunny.16 mph69%29.86 "HgN/A
5:00 PM73 °FPartly sunny.15 mph65%29.86 "HgN/A
4:30 PM75 °FSunny.14 mph61%29.86 "Hg10 mi
4:00 PM75 °FSunny.15 mph57%29.83 "Hg10 mi
Weather by CustomWeather, © 2014

See weather overviewHow to use our weather pages